QPF
0.00 0.00 0.00 0.00 0.00 0.00 0.00 0.00 0.00 0.00 0.00 0.00 0.00 0.00 0.00 0.00 0.00 0.00 0.00 0.00 0.00 0.00 0.00 0.00 0.00 0.00 0.00 0.00 0.00 0.00 0.00 0.00 0.00 0.00 0.00 0.00 0.01 0.01 0.01 0.01 0.01 0.00 0.00 0.00
0.00 0.00 0.00 0.00 0.00 0.00 0.00 0.00 0.00 0.00 0.00 0.00 0.00 0.00 0.00 0.00 0.00 0.00 0.00 0.00 0.00 0.00 0.00 0.00 0.00 0.00 0.00 0.00 0.00 0.00 0.00 0.00 0.00 0.00 0.00 0.00 0.00 0.00 0.01 0.01 0.01 0.01 0.01 0.01
0.00 0.00 0.00 0.00 0.00 0.00 0.00 0.00 0.00 0.00 0.00 0.00 0.00 0.00 0.00 0.00 0.00 0.00 0.00 0.00 0.00 0.00 0.00 0.00 0.00 0.00 0.00 0.00 0.00 0.00 0.00 0.00 0.00 0.00 0.00 0.00 0.00 0.00 0.00 0.01 0.01 0.01 0.01 0.02
0.00 0.00 0.00 0.00 0.00 0.00 0.00 0.00 0.00 0.00 0.00 0.00 0.00 0.00 0.00 0.00 0.00 0.00 0.00 0.00 0.00 0.00 0.00 0.00 0.00 0.00 0.00 0.00 0.00 0.00 0.00 0.00 0.00 0.00 0.00 0.00 0.00 0.00 0.00 0.00 0.00 0.01 0.01 0.02
0.00 0.00 0.00 0.00 0.00 0.00 0.00 0.00 0.00 0.00 0.00 0.00 0.00 0.00 0.00 0.00 0.00 0.00 0.00 0.00 0.00 0.00 0.00 0.00 0.00 0.00 0.00 0.00 0.00 0.00 0.00 0.00 0.00 0.00 0.00 0.00 0.00 0.00 0.00 0.00 0.00 0.00 0.01 0.01
0.00 0.00 0.00 0.00 0.00 0.00 0.00 0.00 0.00 0.00 0.00 0.00 0.00 0.00 0.00 0.00 0.00 0.00 0.00 0.00 0.00 0.00 0.00 0.00 0.00 0.00 0.00 0.00 0.00 0.00 0.00 0.00 0.00 0.00 0.00 0.00 0.00 0.00 0.00 0.00 0.00 0.00 0.00 0.01
0.00 0.00 0.00 0.00 0.00 0.00 0.00 0.00 0.00 0.00 0.00 0.00 0.00 0.00 0.00 0.00 0.00 0.00 0.00 0.00 0.00 0.00 0.00 0.00 0.00 0.00 0.00 0.00 0.00 0.00 0.00 0.00 0.00 0.00 0.00 0.00 0.00 0.00 0.00 0.00 0.00 0.00 0.00 0.00
0.00 0.00 0.00 0.00 0.00 0.00 0.00 0.00 0.00 0.00 0.00 0.00 0.00 0.00 0.00 0.00 0.00 0.00 0.00 0.00 0.00 0.00 0.00 0.00 0.00 0.00 0.00 0.00 0.00 0.00 0.00 0.00 0.00 0.00 0.00 0.00 0.00 0.00 0.00 0.00 0.00 0.00 0.00 0.00
0.00 0.00 0.00 0.00 0.00 0.00 0.00 0.00 0.00 0.00 0.00 0.00 0.00 0.00 0.00 0.00 0.00 0.00 0.00 0.00 0.00 0.00 0.00 0.00 0.00 0.00 0.00 0.00 0.00 0.00 0.00 0.00 0.00 0.00 0.00 0.00 0.00 0.00 0.00 0.00 0.00 0.00 0.00 0.00
0.00 0.00 0.00 0.00 0.00 0.00 0.00 0.00 0.00 0.00 0.00 0.00 0.00 0.00 0.00 0.00 0.00 0.00 0.00 0.00 0.00 0.00 0.00 0.00 0.00 0.00 0.00 0.00 0.00 0.00 0.00 0.00 0.00 0.00 0.00 0.00 0.00 0.00 0.00 0.00 0.00 0.00 0.00 0.00
0.00 0.00 0.00 0.00 0.00 0.00 0.00 0.00 0.00 0.00 0.00 0.00 0.00 0.00 0.00 0.00 0.00 0.00 0.00 0.00 0.00 0.00 0.00 0.00 0.00 0.00 0.00 0.00 0.00 0.00 0.00 0.00 0.00 0.00 0.00 0.00 0.00 0.00 0.00 0.00 0.00 0.00 0.00 0.00
0.00 0.00 0.00 0.00 0.00 0.00 0.00 0.00 0.00 0.00 0.00 0.00 0.00 0.00 0.00 0.00 0.00 0.00 0.00 0.00 0.00 0.00 0.00 0.00 0.00 0.00 0.00 0.00 0.00 0.00 0.00 0.00 0.00 0.00 0.00 0.00 0.00 0.00 0.00 0.00 0.00 0.00 0.00 0.00
0.00 0.00 0.00 0.00 0.00 0.00 0.00 0.00 0.00 0.00 0.00 0.00 0.00 0.00 0.00 0.00 0.00 0.00 0.00 0.00 0.00 0.00 0.00 0.00 0.00 0.00 0.00 0.00 0.00 0.00 0.00 0.00 0.00 0.00 0.00 0.00 0.00 0.00 0.00 0.00 0.00 0.00 0.00 0.00
0.00 0.00 0.00 0.00 0.00 0.00 0.00 0.00 0.00 0.00 0.00 0.00 0.00 0.00 0.00 0.00 0.00 0.00 0.00 0.00 0.00 0.00 0.00 0.00 0.00 0.00 0.00 0.00 0.00 0.00 0.00 0.00 0.00 0.00 0.00 0.00 0.00 0.00 0.00 0.00 0.00 0.00 0.00 0.00
0.02 0.02 0.01 0.01 0.01 0.00 0.00 0.00 0.00 0.00 0.00 0.00 0.00 0.00 0.00 0.00 0.00 0.00 0.00 0.00 0.00 0.00 0.00 0.00 0.00 0.00 0.00 0.00 0.00 0.00 0.00 0.00 0.00 0.00 0.00 0.00 0.00 0.00 0.00 0.00 0.00 0.00 0.00 0.00
0.04 0.04 0.03 0.02 0.01 0.01 0.00 0.00 0.00 0.00 0.00 0.00 0.00 0.00 0.00 0.00 0.00 0.00 0.00 0.00 0.00 0.00 0.00 0.00 0.00 0.00 0.00 0.00 0.00 0.00 0.00 0.00 0.00 0.00 0.00 0.00 0.00 0.00 0.00 0.00 0.00 0.00 0.00 0.00
0.06 0.06 0.04 0.04 0.02 0.03 0.02 0.00 0.00 0.00 0.00 0.00 0.00 0.00 0.00 0.00 0.00 0.00 0.00 0.00 0.00 0.00 0.00 0.00 0.00 0.00 0.00 0.00 0.00 0.00 0.00 0.00 0.00 0.00 0.00 0.00 0.00 0.00 0.00 0.00 0.00 0.00 0.00 0.00
0.10 0.11 0.12 0.09 0.07 0.07 0.01 0.00 0.00 0.00 0.00 0.00 0.00 0.00 0.00 0.00 0.00 0.00 0.00 0.00 0.00 0.00 0.00 0.00 0.00 0.00 0.00 0.00 0.00 0.00 0.00 0.00 0.00 0.00 0.00 0.00 0.00 0.00 0.00 0.00 0.00 0.00 0.00 0.00
0.04 0.09 0.15 0.14 0.09 0.04 0.00 0.00 0.00 0.00 0.00 0.00 0.00 0.00 0.00 0.00 0.00 0.00 0.00 0.00 0.00 0.00 0.00 0.00 0.00 0.00 0.00 0.00 0.00 0.00 0.00 0.00 0.00 0.00 0.00 0.00 0.00 0.00 0.00 0.00 0.00 0.00 0.00 0.00
0.04 0.05 0.10 0.10 0.06 0.02 0.00 0.00 0.00 0.00 0.00 0.00 0.00 0.00 0.00 0.00 0.00 0.00 0.00 0.00 0.00 0.00 0.00 0.00 0.00 0.00 0.00 0.00 0.00 0.00 0.00 0.00 0.00 0.00 0.00 0.00 0.00 0.00 0.00 0.00 0.00 0.00 0.00 0.00
0.06 0.09 0.10 0.07 0.04 0.01 0.00 0.00 0.00 0.00 0.00 0.00 0.00 0.00 0.00 0.00 0.00 0.00 0.00 0.00 0.00 0.00 0.00 0.00 0.00 0.00 0.00 0.00 0.00 0.00 0.00 0.00 0.00 0.00 0.00 0.00 0.00 0.00 0.00 0.00 0.00 0.00 0.00 0.00
0.02 0.04 0.05 0.04 0.04 0.01 0.00 0.00 0.00 0.00 0.00 0.00 0.00 0.00 0.00 0.00 0.00 0.00 0.00 0.00 0.00 0.00 0.00 0.00 0.00 0.00 0.00 0.00 0.00 0.00 0.00 0.00 0.00 0.00 0.00 0.00 0.00 0.00 0.00 0.00 0.00 0.00 0.00 0.00
0.00 0.00 0.01 0.01 0.01 0.00 0.00 0.00 0.00 0.00 0.00 0.00 0.00 0.00 0.00 0.00 0.00 0.00 0.00 0.00 0.00 0.00 0.00 0.00 0.00 0.00 0.00 0.00 0.00 0.00 0.00 0.00 0.00 0.00 0.00 0.00 0.00 0.00 0.00 0.00 0.00 0.00 0.00 0.00
0.00 0.00 0.00 0.00 0.00 0.00 0.00 0.00 0.00 0.00 0.00 0.00 0.00 0.00 0.00 0.00 0.00 0.00 0.00 0.00 0.00 0.00 0.00 0.00 0.00 0.00 0.00 0.00 0.00 0.00 0.00 0.00 0.00 0.00 0.00 0.00 0.00 0.00 0.00 0.00 0.00 0.00 0.01 0.01
0.00 0.00 0.00 0.00 0.00 0.00 0.00 0.00 0.00 0.00 0.00 0.00 0.00 0.00 0.00 0.00 0.00 0.00 0.00 0.00 0.00 0.00 0.00 0.00 0.00 0.00 0.00 0.00 0.00 0.00 0.00 0.00 0.00 0.00 0.00 0.00 0.00 0.00 0.00 0.01 0.01 0.01 0.01 0.01
0.00 0.00 0.00 0.00 0.00 0.00 0.00 0.00 0.00 0.00 0.00 0.00 0.00 0.00 0.00 0.00 0.00 0.00 0.00 0.00 0.00 0.00 0.00 0.00 0.00 0.00 0.00 0.00 0.00 0.00 0.00 0.00 0.00 0.00 0.00 0.00 0.00 0.01 0.01 0.01 0.02 0.02 0.02 0.03
MSLP
1015.56 1016.26 1016.89 1017.43 1017.89 1018.28 1018.63 1018.93 1019.19 1019.40 1019.53 1019.57 1019.49 1019.30 1018.98 1018.57 1018.09 1017.60 1017.14 1016.75 1016.43 1016.22 1016.11 1016.07 1016.10 1016.17 1016.26 1016.39 1016.54 1016.73 1016.97 1017.27 1017.64 1018.05 1018.51 1018.98 1019.45 1019.88 1020.27 1020.62 1020.94 1021.24 1021.55 1021.89
1015.90 1016.51 1017.04 1017.49 1017.89 1018.25 1018.61 1018.96 1019.29 1019.57 1019.77 1019.84 1019.75 1019.50 1019.09 1018.56 1017.96 1017.36 1016.81 1016.35 1016.01 1015.80 1015.69 1015.67 1015.68 1015.72 1015.75 1015.80 1015.86 1015.97 1016.14 1016.41 1016.76 1017.21 1017.71 1018.24 1018.76 1019.24 1019.66 1020.01 1020.31 1020.57 1020.85 1021.16
1016.13 1016.64 1017.07 1017.44 1017.79 1018.15 1018.53 1018.94 1019.35 1019.70 1019.95 1020.03 1019.92 1019.60 1019.09 1018.44 1017.73 1017.03 1016.41 1015.92 1015.59 1015.40 1015.34 1015.35 1015.39 1015.42 1015.42 1015.40 1015.38 1015.40 1015.50 1015.71 1016.04 1016.47 1016.99 1017.55 1018.11 1018.62 1019.06 1019.42 1019.70 1019.95 1020.18 1020.44
1016.24 1016.66 1017.01 1017.33 1017.66 1018.04 1018.48 1018.97 1019.46 1019.88 1020.16 1020.25 1020.09 1019.69 1019.07 1018.31 1017.49 1016.70 1016.03 1015.53 1015.22 1015.10 1015.10 1015.18 1015.27 1015.33 1015.32 1015.27 1015.19 1015.13 1015.15 1015.29 1015.55 1015.95 1016.44 1017.00 1017.56 1018.08 1018.52 1018.88 1019.15 1019.37 1019.57 1019.79
1016.24 1016.57 1016.87 1017.18 1017.54 1017.98 1018.51 1019.09 1019.67 1020.16 1020.47 1020.54 1020.33 1019.84 1019.12 1018.24 1017.31 1016.45 1015.74 1015.25 1014.98 1014.93 1015.02 1015.19 1015.36 1015.46 1015.48 1015.42 1015.31 1015.19 1015.13 1015.18 1015.37 1015.69 1016.12 1016.63 1017.15 1017.65 1018.07 1018.41 1018.68 1018.88 1019.06 1019.24
1016.12 1016.39 1016.66 1017.00 1017.42 1017.97 1018.61 1019.30 1019.97 1020.53 1020.86 1020.92 1020.65 1020.07 1019.24 1018.25 1017.24 1016.32 1015.59 1015.11 1014.89 1014.91 1015.10 1015.36 1015.62 1015.80 1015.86 1015.82 1015.69 1015.54 1015.42 1015.39 1015.48 1015.71 1016.05 1016.47 1016.93 1017.37 1017.75 1018.07 1018.31 1018.50 1018.66 1018.81
1015.86 1016.09 1016.38 1016.77 1017.29 1017.95 1018.72 1019.53 1020.29 1020.90 1021.25 1021.29 1020.96 1020.31 1019.40 1018.34 1017.26 1016.31 1015.57 1015.11 1014.95 1015.04 1015.31 1015.66 1016.01 1016.26 1016.39 1016.38 1016.27 1016.10 1015.93 1015.84 1015.85 1015.98 1016.22 1016.54 1016.90 1017.26 1017.58 1017.85 1018.07 1018.24 1018.39 1018.52
1015.48 1015.70 1016.03 1016.48 1017.11 1017.88 1018.76 1019.67 1020.50 1021.15 1021.51 1021.52 1021.15 1020.45 1019.50 1018.40 1017.31 1016.36 1015.65 1015.23 1015.12 1015.28 1015.62 1016.05 1016.47 1016.79 1016.98 1017.02 1016.93 1016.77 1016.59 1016.46 1016.41 1016.45 1016.59 1016.81 1017.07 1017.33 1017.58 1017.80 1017.97 1018.12 1018.25 1018.36
1015.00 1015.23 1015.60 1016.12 1016.83 1017.69 1018.64 1019.61 1020.47 1021.12 1021.47 1021.46 1021.08 1020.36 1019.41 1018.34 1017.30 1016.41 1015.77 1015.42 1015.38 1015.60 1016.01 1016.49 1016.96 1017.33 1017.56 1017.64 1017.60 1017.46 1017.30 1017.15 1017.06 1017.05 1017.12 1017.24 1017.41 1017.58 1017.74 1017.89 1018.01 1018.12 1018.22 1018.32
1014.49 1014.74 1015.14 1015.72 1016.47 1017.36 1018.34 1019.29 1020.13 1020.74 1021.05 1021.01 1020.63 1019.95 1019.06 1018.09 1017.16 1016.40 1015.89 1015.66 1015.71 1016.01 1016.46 1016.97 1017.46 1017.85 1018.11 1018.23 1018.22 1018.12 1017.98 1017.85 1017.76 1017.72 1017.74 1017.80 1017.88 1017.96 1018.04 1018.11 1018.17 1018.23 1018.28 1018.34
1014.03 1014.31 1014.73 1015.32 1016.07 1016.93 1017.85 1018.72 1019.47 1019.99 1020.22 1020.15 1019.78 1019.17 1018.41 1017.61 1016.88 1016.33 1016.00 1015.94 1016.12 1016.49 1016.98 1017.51 1018.00 1018.38 1018.64 1018.77 1018.78 1018.72 1018.62 1018.53 1018.46 1018.42 1018.41 1018.43 1018.44 1018.45 1018.45 1018.44 1018.42 1018.41 1018.39 1018.39
1013.72 1014.03 1014.46 1015.03 1015.72 1016.49 1017.28 1018.00 1018.58 1018.96 1019.09 1018.98 1018.64 1018.13 1017.54 1016.97 1016.50 1016.21 1016.12 1016.27 1016.60 1017.07 1017.60 1018.13 1018.60 1018.95 1019.18 1019.30 1019.32 1019.28 1019.23 1019.17 1019.13 1019.11 1019.10 1019.09 1019.06 1019.00 1018.92 1018.82 1018.72 1018.61 1018.52 1018.43
1013.63 1013.96 1014.39 1014.91 1015.51 1016.13 1016.73 1017.25 1017.62 1017.82 1017.83 1017.66 1017.35 1016.96 1016.57 1016.26 1016.09 1016.09 1016.29 1016.66 1017.17 1017.74 1018.32 1018.85 1019.28 1019.58 1019.77 1019.85 1019.86 1019.84 1019.80 1019.78 1019.78 1019.78 1019.77 1019.74 1019.67 1019.56 1019.40 1019.22 1019.02 1018.83 1018.64 1018.46
1013.78 1014.14 1014.55 1015.01 1015.48 1015.93 1016.32 1016.60 1016.75 1016.75 1016.62 1016.39 1016.11 1015.85 1015.66 1015.61 1015.74 1016.05 1016.53 1017.13 1017.80 1018.48 1019.11 1019.62 1020.01 1020.26 1020.39 1020.43 1020.42 1020.39 1020.37 1020.37 1020.38 1020.40 1020.39 1020.35 1020.24 1020.08 1019.85 1019.59 1019.31 1019.02 1018.74 1018.48
1014.14 1014.52 1014.91 1015.30 1015.64 1015.92 1016.09 1016.14 1016.07 1015.89 1015.63 1015.34 1015.09 1014.94 1014.93 1015.13 1015.52 1016.10 1016.82 1017.63 1018.45 1019.22 1019.88 1020.38 1020.73 1020.92 1021.00 1021.00 1020.96 1020.92 1020.90 1020.91 1020.94 1020.96 1020.94 1020.88 1020.74 1020.53 1020.24 1019.91 1019.56 1019.19 1018.83 1018.48
1014.62 1015.02 1015.38 1015.69 1015.92 1016.04 1016.03 1015.89 1015.64 1015.30 1014.93 1014.61 1014.38 1014.32 1014.47 1014.86 1015.46 1016.24 1017.15 1018.11 1019.03 1019.86 1020.53 1021.02 1021.33 1021.48 1021.52 1021.49 1021.43 1021.39 1021.37 1021.38 1021.41 1021.43 1021.40 1021.31 1021.13 1020.88 1020.54 1020.16 1019.74 1019.32 1018.90 1018.49
1015.11 1015.50 1015.83 1016.08 1016.21 1016.21 1016.07 1015.79 1015.41 1014.97 1014.55 1014.20 1014.01 1014.02 1014.28 1014.79 1015.53 1016.44 1017.45 1018.48 1019.45 1020.29 1020.96 1021.43 1021.72 1021.85 1021.87 1021.83 1021.78 1021.74 1021.73 1021.75 1021.78 1021.79 1021.74 1021.62 1021.41 1021.12 1020.75 1020.32 1019.87 1019.40 1018.95 1018.51
1015.49 1015.84 1016.13 1016.32 1016.38 1016.30 1016.08 1015.73 1015.30 1014.83 1014.40 1014.07 1013.92 1014.00 1014.32 1014.90 1015.69 1016.64 1017.67 1018.70 1019.65 1020.47 1021.11 1021.55 1021.82 1021.95 1021.99 1021.97 1021.95 1021.95 1021.97 1022.00 1022.03 1022.03 1021.96 1021.81 1021.57 1021.24 1020.84 1020.39 1019.92 1019.44 1018.97 1018.52
1015.69 1015.98 1016.20 1016.32 1016.33 1016.21 1015.97 1015.61 1015.19 1014.76 1014.37 1014.11 1014.02 1014.15 1014.52 1015.11 1015.90 1016.82 1017.80 1018.76 1019.65 1020.40 1020.98 1021.40 1021.67 1021.82 1021.89 1021.93 1021.97 1022.02 1022.08 1022.14 1022.18 1022.16 1022.08 1021.90 1021.63 1021.27 1020.85 1020.38 1019.90 1019.42 1018.96 1018.50
1015.68 1015.88 1016.01 1016.07 1016.04 1015.90 1015.67 1015.36 1015.01 1014.67 1014.39 1014.23 1014.23 1014.42 1014.81 1015.41 1016.15 1017.00 1017.88 1018.74 1019.52 1020.18 1020.71 1021.09 1021.36 1021.55 1021.68 1021.79 1021.90 1022.02 1022.13 1022.22 1022.26 1022.24 1022.12 1021.91 1021.61 1021.22 1020.78 1020.30 1019.82 1019.35 1018.89 1018.44
1015.52 1015.60 1015.63 1015.61 1015.53 1015.40 1015.21 1014.98 1014.75 1014.54 1014.40 1014.37 1014.49 1014.76 1015.20 1015.78 1016.48 1017.24 1018.01 1018.75 1019.42 1019.99 1020.45 1020.80 1021.08 1021.30 1021.50 1021.68 1021.86 1022.03 1022.19 1022.30 1022.34 1022.29 1022.14 1021.89 1021.54 1021.12 1020.65 1020.16 1019.67 1019.20 1018.75 1018.31
1015.26 1015.21 1015.14 1015.05 1014.93 1014.81 1014.67 1014.54 1014.44 1014.39 1014.42 1014.56 1014.81 1015.19 1015.68 1016.28 1016.94 1017.63 1018.31 1018.94 1019.51 1019.99 1020.39 1020.72 1021.00 1021.25 1021.49 1021.73 1021.96 1022.17 1022.34 1022.45 1022.46 1022.37 1022.16 1021.85 1021.44 1020.97 1020.47 1019.95 1019.46 1018.98 1018.54 1018.11
1014.98 1014.82 1014.66 1014.50 1014.36 1014.25 1014.18 1014.15 1014.20 1014.32 1014.53 1014.83 1015.24 1015.74 1016.31 1016.95 1017.60 1018.26 1018.87 1019.43 1019.92 1020.34 1020.69 1021.00 1021.27 1021.53 1021.79 1022.04 1022.28 1022.49 1022.64 1022.70 1022.65 1022.49 1022.20 1021.81 1021.33 1020.80 1020.24 1019.70 1019.18 1018.71 1018.26 1017.84
1014.73 1014.49 1014.27 1014.07 1013.92 1013.84 1013.84 1013.93 1014.11 1014.40 1014.78 1015.26 1015.83 1016.46 1017.14 1017.84 1018.52 1019.17 1019.76 1020.28 1020.72 1021.10 1021.41 1021.69 1021.94 1022.19 1022.43 1022.65 1022.85 1023.01 1023.08 1023.05 1022.91 1022.64 1022.24 1021.75 1021.18 1020.58 1019.97 1019.39 1018.85 1018.37 1017.94 1017.54
1014.50 1014.24 1014.00 1013.81 1013.69 1013.67 1013.76 1013.96 1014.28 1014.72 1015.26 1015.90 1016.61 1017.38 1018.16 1018.94 1019.68 1020.35 1020.95 1021.46 1021.88 1022.23 1022.51 1022.75 1022.97 1023.16 1023.34 1023.49 1023.60 1023.65 1023.60 1023.45 1023.17 1022.77 1022.25 1021.65 1020.99 1020.30 1019.64 1019.03 1018.48 1018.00 1017.59 1017.23
1014.24 1014.02 1013.84 1013.71 1013.68 1013.75 1013.95 1014.27 1014.73 1015.30 1015.99 1016.77 1017.61 1018.49 1019.37 1020.22 1021.01 1021.72 1022.33 1022.84 1023.26 1023.58 1023.83 1024.02 1024.17 1024.29 1024.37 1024.41 1024.39 1024.29 1024.10 1023.79 1023.35 1022.81 1022.16 1021.45 1020.70 1019.96 1019.25 1018.62 1018.08 1017.62 1017.26 1016.95
Thickness
5640 5636 5635 5642 5647 5648 5642 5643 5648 5655 5660 5660 5661 5665 5674 5682 5685 5688 5692 5696 5699 5704 5711 5713 5713 5712 5711 5710 5708 5707 5704 5702 5698 5694 5691 5688 5686 5683 5679 5675 5671 5666 5661 5657
5627 5628 5637 5637 5638 5639 5638 5641 5644 5649 5652 5652 5656 5659 5669 5677 5683 5689 5692 5696 5699 5701 5705 5708 5710 5710 5710 5710 5710 5708 5707 5705 5702 5699 5696 5692 5688 5684 5680 5676 5672 5668 5663 5658
5624 5631 5632 5631 5630 5633 5635 5636 5639 5642 5643 5642 5648 5653 5663 5675 5680 5685 5688 5691 5694 5696 5700 5705 5707 5708 5706 5706 5707 5709 5708 5705 5703 5699 5693 5688 5684 5681 5677 5675 5672 5668 5663 5659
5619 5625 5624 5626 5624 5627 5624 5633 5636 5635 5630 5625 5635 5628 5652 5663 5667 5679 5685 5686 5689 5693 5696 5699 5701 5703 5703 5704 5704 5704 5703 5701 5699 5695 5691 5687 5684 5681 5680 5676 5671 5666 5661 5657
5614 5617 5620 5621 5624 5626 5625 5626 5624 5625 5622 5617 5620 5621 5640 5652 5664 5675 5680 5681 5683 5688 5691 5693 5695 5696 5697 5696 5697 5697 5696 5695 5693 5690 5687 5683 5680 5678 5674 5669 5665 5661 5657 5653
5610 5614 5619 5622 5621 5622 5613 5611 5605 5599 5601 5604 5613 5612 5628 5644 5662 5671 5674 5673 5674 5678 5681 5683 5685 5686 5686 5686 5687 5687 5687 5686 5684 5682 5680 5677 5674 5670 5665 5661 5657 5654 5651 5647
5599 5606 5612 5615 5610 5610 5613 5602 5590 5592 5586 5592 5604 5607 5625 5650 5657 5661 5663 5664 5666 5667 5669 5671 5673 5673 5674 5674 5674 5675 5676 5674 5673 5672 5670 5667 5665 5661 5657 5653 5649 5645 5641 5638
5586 5591 5603 5608 5610 5605 5604 5606 5590 5581 5578 5583 5593 5595 5624 5643 5649 5651 5653 5655 5657 5659 5658 5659 5659 5659 5659 5660 5661 5662 5662 5661 5660 5658 5656 5654 5652 5649 5647 5643 5640 5636 5633 5630
5589 5588 5596 5599 5606 5607 5596 5594 5594 5577 5561 5574 5583 5595 5617 5639 5643 5645 5646 5648 5648 5647 5648 5647 5646 5647 5647 5647 5646 5647 5647 5646 5645 5644 5643 5641 5638 5636 5634 5631 5628 5625 5622 5619
5588 5579 5583 5586 5591 5591 5596 5587 5576 5574 5566 5571 5588 5596 5611 5633 5636 5634 5635 5636 5636 5635 5634 5634 5633 5633 5633 5632 5632 5632 5632 5631 5630 5629 5628 5626 5624 5622 5620 5618 5615 5612 5610 5607
5581 5572 5562 5570 5578 5581 5580 5580 5581 5572 5568 5564 5567 5592 5613 5623 5626 5623 5622 5621 5621 5620 5619 5618 5618 5617 5617 5616 5616 5616 5616 5616 5615 5614 5613 5611 5610 5608 5606 5604 5602 5600 5597 5595
5570 5562 5551 5559 5568 5574 5580 5580 5575 5570 5561 5561 5572 5588 5612 5610 5610 5610 5609 5607 5606 5605 5603 5601 5601 5601 5601 5600 5600 5599 5599 5598 5597 5597 5597 5596 5594 5592 5591 5589 5588 5586 5584 5582
5559 5550 5538 5544 5551 5557 5563 5568 5571 5569 5556 5542 5556 5584 5596 5595 5596 5596 5594 5591 5589 5588 5586 5584 5583 5582 5582 5581 5581 5581 5580 5580 5580 5580 5580 5580 5578 5577 5575 5574 5573 5572 5570 5569
5552 5543 5546 5552 5560 5554 5551 5557 5559 5559 5553 5555 5569 5584 5586 5584 5584 5582 5579 5576 5572 5570 5568 5567 5565 5563 5563 5562 5561 5561 5561 5561 5562 5562 5562 5561 5560 5559 5558 5558 5557 5557 5556 5555
5537 5533 5536 5542 5543 5543 5550 5552 5550 5556 5566 5566 5578 5575 5581 5577 5575 5571 5565 5560 5557 5554 5553 5551 5549 5547 5545 5544 5543 5543 5542 5542 5542 5542 5543 5542 5541 5541 5541 5541 5541 5541 5540 5540
5523 5520 5520 5521 5523 5527 5532 5539 5544 5552 5558 5559 5563 5566 5574 5567 5559 5555 5551 5548 5544 5541 5538 5536 5533 5531 5528 5527 5526 5526 5525 5524 5524 5524 5524 5524 5523 5523 5523 5523 5523 5524 5524 5524
5508 5506 5506 5507 5505 5509 5514 5536 5537 5540 5544 5550 5556 5566 5556 5551 5548 5545 5539 5534 5530 5527 5523 5519 5517 5514 5512 5511 5510 5509 5508 5507 5507 5507 5507 5506 5506 5506 5505 5505 5505 5506 5506 5506
5496 5494 5493 5490 5492 5503 5538 5532 5535 5537 5541 5542 5548 5549 5547 5544 5533 5526 5523 5519 5515 5512 5508 5505 5501 5499 5497 5495 5493 5492 5491 5492 5492 5491 5490 5489 5489 5488 5488 5488 5488 5487 5488 5487
5488 5484 5478 5479 5485 5490 5506 5515 5516 5520 5528 5534 5534 5529 5521 5513 5508 5504 5505 5503 5501 5497 5493 5489 5485 5482 5480 5478 5477 5475 5476 5475 5475 5474 5473 5471 5469 5469 5470 5470 5470 5469 5469 5470
5470 5473 5467 5462 5467 5472 5507 5509 5507 5513 5512 5520 5518 5515 5503 5500 5501 5497 5489 5486 5483 5480 5476 5472 5469 5466 5464 5462 5460 5459 5458 5457 5456 5455 5453 5451 5450 5449 5450 5450 5450 5449 5448 5450
5460 5459 5459 5451 5454 5463 5486 5490 5495 5493 5507 5501 5500 5498 5491 5491 5491 5481 5473 5468 5465 5462 5459 5456 5453 5449 5447 5444 5442 5441 5440 5438 5436 5434 5432 5431 5430 5429 5429 5430 5430 5428 5427 5427
5457 5453 5449 5443 5446 5463 5476 5472 5482 5486 5478 5476 5475 5475 5471 5466 5462 5460 5455 5451 5448 5444 5441 5438 5434 5431 5428 5425 5422 5421 5419 5418 5415 5413 5413 5411 5410 5409 5409 5409 5409 5407 5405 5405
5439 5450 5448 5452 5460 5461 5457 5464 5463 5460 5458 5458 5457 5455 5453 5449 5445 5441 5438 5434 5430 5426 5422 5418 5414 5411 5407 5403 5399 5397 5397 5395 5393 5392 5391 5391 5391 5390 5388 5387 5388 5387 5384 5382
5412 5421 5426 5429 5436 5440 5438 5440 5441 5442 5442 5441 5440 5438 5436 5432 5427 5424 5419 5414 5410 5405 5400 5395 5392 5389 5386 5381 5377 5373 5372 5371 5369 5369 5369 5370 5370 5370 5369 5367 5366 5364 5363 5360
5404 5403 5408 5412 5416 5418 5420 5422 5422 5421 5421 5419 5419 5418 5416 5413 5409 5404 5398 5392 5387 5382 5376 5372 5368 5366 5362 5358 5354 5350 5348 5347 5346 5347 5347 5348 5347 5347 5348 5348 5345 5344 5343 5338
5388 5396 5402 5407 5409 5407 5408 5405 5404 5403 5402 5400 5398 5394 5391 5389 5385 5379 5373 5367 5361 5355 5350 5346 5343 5340 5337 5334 5331 5327 5325 5323 5322 5325 5326 5325 5325 5325 5325 5325 5327 5326 5323 5322